Regional Weather Roundup
Issued by NWS

Home | Current Version | Previous Version | Text Only | Print | Product List | Glossary On
Versions: 1 2 3 4 5 6 7 8 9 10 11 12 13 14 15 16 17 18 19 20 21 22 23 24 25 26 27 28 29 30 31 32 33 34 35 36 37 38 39 40 41 42 43 44 45 46 47 48 49 50
000
ASUS43 KTOP 201208
RWRKS

WEATHER ROUNDUP FOR KANSAS
NATIONAL WEATHER SERVICE GOODLAND KS
700 AM CDT MON OCT 20 2014

NOTE:  "FAIR" INDICATES FEW OR NO CLOUDS BELOW 12,000 FEET WITH NO
SIGNIFICANT WEATHER AND/OR OBSTRUCTIONS TO VISIBILITY.

KSZ001>006-013>018-027>032-041>047-201300-
NORTHWEST KANSAS

CITY           SKY/WX    TMP DP  RH WIND       PRES   REMARKS
GOODLAND       CLEAR     41  38  89 W8        30.14R
6HR MIN TEMP:  39; 6HR MAX TEMP:  44;

HAYS           CLEAR     45  37  76 W3        30.07R
HILL CITY      CLEAR     40  39  97 SW3       30.08R
6HR MIN TEMP:  40; 6HR MAX TEMP:  47;

RUSSELL        CLEAR     44  44 100 NW5       30.05R
6HR MIN TEMP:  44; 6HR MAX TEMP:  54;

$$

KSZ061>065-074>080-084>089-201300-
SOUTHWEST KANSAS

CITY           SKY/WX    TMP DP  RH WIND       PRES   REMARKS
DODGE CITY     FOG       49  48  97 N10       30.07R VSB 1/4
6HR MIN TEMP:  48; 6HR MAX TEMP:  53;

ELKHART          N/A     49  42  77 NW6         N/A
GARDEN CITY    CLEAR     47  45  93 N9        30.08R
6HR MIN TEMP:  46; 6HR MAX TEMP:  50;

GREAT BEND     CLOUDY    46  43  87 N6        30.06R VSB<1/4
LIBERAL        CLEAR     48  43  81 NW9       30.08S
PRATT          FOG       46  46 100 N3        30.04R VSB 1/4
$$

KSZ066>073-081>083-090>101-201300-
SOUTHEAST KANSAS

CITY           SKY/WX    TMP DP  RH WIND       PRES   REMARKS
CHANUTE        CLOUDY    58  54  86 S6        30.03R
6HR MIN TEMP:  57; 6HR MAX TEMP:  60;

COFFEYVILLE    CLOUDY    58  54  86 S6        30.04R
6HR MIN TEMP:  58; 6HR MAX TEMP:  60; 6HR PCP: TRACE;

HUTCHINSON     FOG       49  46  90 CALM      30.04R VSB 1/4
6HR MIN TEMP:  46; 6HR MAX TEMP:  59;

MEDICINE LODGE   N/A     50  50 100 CALM      30.02R
NEWTON         CLEAR     52  46  82 S3        30.05R
PARSONS        MOCLDY    58  55  90 MISG      30.05R
6HR MIN TEMP:  58; 6HR MAX TEMP:  60;

WICHITA INTL   PTCLDY    55  52  89 SE3       30.03R
6HR MIN TEMP:  53; 6HR MAX TEMP:  61;

WICHITA JABRA  FOG       51  50  96 CALM      30.03R VSB 3/4
6HR MIN TEMP:  51; 6HR MAX TEMP:  60;

WICHITA MCCONL CLEAR     55  55 100 SE3       30.03R
WINFIELD       CLEAR     57  54  89 SE3       30.04R
6HR MIN TEMP:  54; 6HR MAX TEMP:  62;

$$

KSZ007>012-019>026-033>040-048>060-102>105-201300-
NORTHEAST KANSAS

CITY           SKY/WX    TMP DP  RH WIND       PRES   REMARKS
CONCORDIA      CLEAR     47  47 100 NW8       30.05R
6HR MIN TEMP:  47; 6HR MAX TEMP:  56;

EMPORIA        FOG       50  50 100 CALM      30.04R VSB 3/4
6HR MIN TEMP:  48; 6HR MAX TEMP:  54;

LAWRENCE       FOG       42  41  96 NW5       30.01S VSB 3/4
6HR MIN TEMP:  43; 6HR MAX TEMP:  57;

MANHATTAN      CLEAR     41  41 100 CALM      30.04R FOG
6HR MIN TEMP:  42; 6HR MAX TEMP:  50;

MARYSVILLE     CLEAR     43  43 100 CALM      30.03R FOG
OLATHE IND     CLEAR     50  49  96 SW3       30.01S
6HR MIN TEMP:  50; 6HR MAX TEMP:  56;

OLATHE EXE     CLEAR     53  52  96 W5        30.00R
6HR MIN TEMP:  51; 6HR MAX TEMP:  57;

SALINA         CLEAR     47  44  90 W5        30.05R
6HR MIN TEMP:  47; 6HR MAX TEMP:  55;

TOPEKA BILLARD FOG       47  46  97 CALM      30.02R VSB 1/4
6HR MIN TEMP:  44; 6HR MAX TEMP:  59;

TOPEKA FORBES  FOG       46  45  96 SW3       30.01S VSB 1/4
6HR MIN TEMP:  46; 6HR MAX TEMP:  57;

$$


USA.gov is the U.S. government's official web portal to all federal, state and local government web resources and services.